TimeCDT,TemperatureF,Dew PointF,Humidity,Sea Level PressureIn,VisibilityMPH,Wind Direction,Wind SpeedMPH,Gust SpeedMPH,PrecipitationIn,Events,Conditions,WindDirDegrees,DateUTC
12:54 AM,41.0,30.9,67,29.76,10.0,SSW,4.6,-,N/A,,Overcast,200,2013-04-12 05:54:00
1:54 AM,41.0,30.9,67,29.75,10.0,WSW,5.8,-,N/A,,Overcast,240,2013-04-12 06:54:00
2:54 AM,39.9,30.0,68,29.75,10.0,WSW,11.5,18.4,N/A,,Scattered Clouds,240,2013-04-12 07:54:00
3:54 AM,39.0,30.0,70,29.75,10.0,WSW,6.9,-,N/A,,Mostly Cloudy,250,2013-04-12 08:54:00
4:54 AM,37.0,28.9,73,29.76,10.0,WSW,6.9,-,N/A,,Clear,250,2013-04-12 09:54:00
5:54 AM,37.0,28.9,73,29.77,10.0,SW,8.1,-,N/A,,Partly Cloudy,230,2013-04-12 10:54:00
6:54 AM,36.0,28.0,73,29.80,10.0,WSW,9.2,-,N/A,,Partly Cloudy,250,2013-04-12 11:54:00
7:54 AM,39.0,28.0,65,29.81,10.0,WSW,10.4,-,N/A,,Partly Cloudy,240,2013-04-12 12:54:00
8:54 AM,41.0,28.0,60,29.82,10.0,West,11.5,20.7,N/A,,Unknown,260,2013-04-12 13:54:00
9:54 AM,41.0,28.0,60,29.84,10.0,West,15.0,23.0,N/A,,Overcast,260,2013-04-12 14:54:00
10:54 AM,42.1,28.0,58,29.86,10.0,West,15.0,24.2,N/A,,Overcast,270,2013-04-12 15:54:00
11:54 AM,42.1,28.9,60,29.89,10.0,West,13.8,23.0,N/A,,Overcast,260,2013-04-12 16:54:00
12:54 PM,43.0,28.9,58,29.91,10.0,WSW,16.1,23.0,N/A,,Overcast,250,2013-04-12 17:54:00
1:54 PM,44.1,30.0,58,29.92,10.0,WSW,18.4,24.2,N/A,,Overcast,240,2013-04-12 18:54:00
2:54 PM,44.1,30.0,58,29.94,10.0,West,16.1,20.7,N/A,,Overcast,260,2013-04-12 19:54:00
3:54 PM,44.1,30.0,58,29.94,10.0,West,12.7,-,N/A,,Overcast,270,2013-04-12 20:54:00
4:54 PM,44.1,30.9,60,29.95,10.0,West,13.8,-,N/A,,Overcast,270,2013-04-12 21:54:00
5:54 PM,45.0,30.0,56,29.97,10.0,West,15.0,19.6,N/A,,Overcast,280,2013-04-12 22:54:00
6:54 PM,44.1,30.0,58,29.99,10.0,West,11.5,-,N/A,,Overcast,270,2013-04-12 23:54:00
7:54 PM,43.0,30.9,62,29.99,10.0,West,5.8,-,N/A,,Overcast,260,2013-04-13 00:54:00
8:54 PM,43.0,30.9,62,30.00,10.0,West,5.8,-,N/A,,Overcast,260,2013-04-13 01:54:00
9:54 PM,42.1,32.0,67,30.01,10.0,SW,3.5,-,N/A,,Overcast,220,2013-04-13 02:54:00
10:54 PM,41.0,30.9,67,30.02,10.0,South,4.6,-,N/A,,Mostly Cloudy,190,2013-04-13 03:54:00
11:54 PM,37.9,30.0,73,30.04,10.0,Calm,Calm,-,N/A,,Clear,0,2013-04-13 04:54:00